User: anonymous   Login
Location: Unspecified
(0.0000°N, 0.0000°E)
Time: 02:34:29
(UTC+01:00)
Language:

Cosmos 407 Rocket - Orbit

View from above orbital plane
View from above orbital plane
View from above satellite
View from above satellite

Ground track
Ground track

The orbit data is extracted from the following two-line orbital elements,

1 05175U 71035B   16044.50727966  .00000147  00000-0  57294-4 0  9994
2 05175  74.0476  30.1313 0030014 357.7781   2.3235 14.37771215344560
Epoch (UTC): 13 February 2016 12:10:28
Eccentricity: 0.0030014
inclination: 74.0476°
perigee height: 744 km
apogee height: 787 km
right ascension of ascending node: 30.1313°
argument of perigee: 357.7781°
revolutions per day: 14.37771215
mean anomaly at epoch: 2.3235°
orbit number at epoch: 34456

The dashed part of the orbit path shows where the satellite is in the earth's shadow,  

DLR